{"data":{"norad_id":64530,"epoch":"2026-09-21T20:31:53.145408Z","epoch_age_seconds":64438,"freshness":"FRESH","line1":"1 64530U 25135C   26264.85547622  .00009998  00000+0  35714-3 0  9990","line2":"2 64530  97.4697  20.9182 0004386 192.1973 167.9161 15.29036040 69698","mean_motion":15.2903604,"eccentricity":0.0004386,"inclination_deg":97.4697,"raan_deg":20.9182,"arg_perigee_deg":192.1973,"mean_anomaly_deg":167.9161,"bstar":0.00035714,"rev_number":6969,"period_min":94.176982250857,"perigee_km":475.68524315928,"apogee_km":481.70005412707,"semimajor_km":6856.8296486432,"source":"CELESTRAK","updated_at":"2026-09-22T09:00:29.815222Z"}}